Location: Bellerive
(46.9237°N, 7.0223°E)
Time: 11:42:42
(UTC+00:00)

Cosmos 1408 - Pass Details

Date: 09 April 2020
Orbit: 470 x 494 km, 82.6° (Epoch: 27 May)

Event Time Altitude Azimuth Distance (km) Brightness Sun altitude
Rises 20:41:56 0° 352° (N) 2,564 7.0 -23.2°
Reaches altitude 10° 20:44:02 10° 353° (N) 1,683 5.9 -23.5°
Enters shadow 20:46:49 49° 3° (N) 640 3.3 -23.8°
